Time,TemperatureF,DewpointF,PressureIn,WindDirection,WindDirectionDegrees,WindSpeedMPH,WindSpeedGustMPH,Humidity,HourlyPrecipIn,Conditions,Clouds,dailyrainin,SoftwareType,DateUTC
2013-12-16 00:10:00,29.3,26.5,29.91,West,270,3.2,-999.0,89,-99.99,,,0.00,Acu-Link.com,2013-12-16 05:10:00,
2013-12-16 00:25:00,29.3,26.5,29.91,WSW,247,3.7,-999.0,89,-99.99,,,0.00,Acu-Link.com,2013-12-16 05:25:00,
2013-12-16 00:40:00,29.3,26.5,29.90,West,270,3.7,-999.0,89,-99.99,,,0.00,Acu-Link.com,2013-12-16 05:40:00,
2013-12-16 00:55:00,29.5,26.9,29.90,SSW,202,4.2,-999.0,90,-99.99,,,0.00,Acu-Link.com,2013-12-16 05:55:00,
2013-12-16 01:10:00,29.5,26.9,29.90,SW,225,4.7,-999.0,90,-99.99,,,0.00,Acu-Link.com,2013-12-16 06:10:00,
2013-12-16 01:25:00,29.5,26.9,29.90,WSW,247,5.3,-999.0,90,-99.99,,,0.00,Acu-Link.com,2013-12-16 06:25:00,
2013-12-16 01:41:00,29.7,27.4,29.90,West,270,3.7,-999.0,91,-99.99,,,0.00,Acu-Link.com,2013-12-16 06:41:00,
2013-12-16 01:56:00,29.7,27.4,29.90,SSW,202,5.3,-999.0,91,-99.99,,,0.00,Acu-Link.com,2013-12-16 06:56:00,
2013-12-16 02:11:00,29.8,27.5,29.91,WSW,247,3.2,-999.0,91,-99.99,,,0.00,Acu-Link.com,2013-12-16 07:11:00,
2013-12-16 02:26:00,29.8,27.5,29.91,West,270,4.7,-999.0,91,-99.99,,,0.00,Acu-Link.com,2013-12-16 07:26:00,
2013-12-16 02:41:00,30.0,27.7,29.92,WSW,247,8.3,-999.0,91,-99.99,,,0.00,Acu-Link.com,2013-12-16 07:41:00,
2013-12-16 02:56:00,30.0,27.7,29.91,WSW,247,5.3,-999.0,91,-99.99,,,0.00,Acu-Link.com,2013-12-16 07:56:00,
2013-12-16 03:11:00,30.0,27.7,29.92,WSW,247,7.8,-999.0,91,-99.99,,,0.00,Acu-Link.com,2013-12-16 08:11:00,
2013-12-16 03:26:00,30.0,27.7,29.92,West,270,2.7,-999.0,91,-99.99,,,0.00,Acu-Link.com,2013-12-16 08:26:00,
2013-12-16 03:42:00,30.2,27.9,29.92,SW,225,3.7,-999.0,91,-99.99,,,0.00,Acu-Link.com,2013-12-16 08:42:00,
2013-12-16 03:57:00,30.2,27.9,29.91,SW,225,4.2,-999.0,91,-99.99,,,0.00,Acu-Link.com,2013-12-16 08:57:00,
2013-12-16 04:12:00,30.2,27.9,29.91,SW,225,3.2,-999.0,91,-99.99,,,0.00,Acu-Link.com,2013-12-16 09:12:00,
2013-12-16 04:27:00,30.2,27.9,29.91,WSW,247,6.8,-999.0,91,-99.99,,,0.00,Acu-Link.com,2013-12-16 09:27:00,
2013-12-16 04:42:00,30.2,27.9,29.91,SSW,202,2.2,-999.0,91,-99.99,,,0.00,Acu-Link.com,2013-12-16 09:42:00,
2013-12-16 04:58:00,30.2,27.9,29.90,SSW,202,2.7,-999.0,91,-99.99,,,0.00,Acu-Link.com,2013-12-16 09:58:00,
2013-12-16 05:13:00,30.4,28.1,29.90,West,270,3.2,-999.0,91,-99.99,,,0.00,Acu-Link.com,2013-12-16 10:13:00,
2013-12-16 05:28:00,30.4,28.1,29.89,SSW,202,4.2,-999.0,91,-99.99,,,0.00,Acu-Link.com,2013-12-16 10:28:00,
2013-12-16 05:43:00,30.6,28.3,29.89,SSE,157,2.2,-999.0,91,-99.99,,,0.00,Acu-Link.com,2013-12-16 10:43:00,
2013-12-16 05:59:00,30.6,28.3,29.89,SSW,202,6.3,-999.0,91,-99.99,,,0.00,Acu-Link.com,2013-12-16 10:59:00,
2013-12-16 06:14:00,30.6,28.3,29.89,West,270,3.7,-999.0,91,-99.99,,,0.00,Acu-Link.com,2013-12-16 11:14:00,
2013-12-16 06:29:00,30.6,28.3,29.89,South,180,4.2,-999.0,91,-99.99,,,0.00,Acu-Link.com,2013-12-16 11:29:00,
2013-12-16 06:44:00,30.6,28.3,29.89,SE,135,3.7,-999.0,91,-99.99,,,0.00,Acu-Link.com,2013-12-16 11:44:00,
2013-12-16 06:59:00,30.4,28.4,29.89,South,180,3.7,-999.0,92,-99.99,,,0.00,Acu-Link.com,2013-12-16 11:59:00,
2013-12-16 07:15:00,30.6,28.6,29.89,SW,225,2.7,-999.0,92,-99.99,,,0.00,Acu-Link.com,2013-12-16 12:15:00,
2013-12-16 07:30:00,30.6,28.6,29.88,South,180,2.7,-999.0,92,-99.99,,,0.00,Acu-Link.com,2013-12-16 12:30:00,
2013-12-16 07:45:00,30.7,28.7,29.88,SE,135,5.3,-999.0,92,-99.99,,,0.00,Acu-Link.com,2013-12-16 12:45:00,
2013-12-16 08:00:00,30.9,28.9,29.88,SSE,157,4.2,-999.0,92,-99.99,,,0.00,Acu-Link.com,2013-12-16 13:00:00,
2013-12-16 08:15:00,30.9,28.9,29.89,South,180,4.2,-999.0,92,-99.99,,,0.00,Acu-Link.com,2013-12-16 13:15:00,
2013-12-16 08:30:00,31.3,29.0,29.90,SW,225,4.7,-999.0,91,-99.99,,,0.00,Acu-Link.com,2013-12-16 13:30:00,
2013-12-16 08:46:00,31.5,29.2,29.90,SW,225,4.2,-999.0,91,-99.99,,,0.00,Acu-Link.com,2013-12-16 13:46:00,
2013-12-16 09:01:00,31.8,29.2,29.91,SSW,202,5.3,-999.0,90,-99.99,,,0.00,Acu-Link.com,2013-12-16 14:01:00,
2013-12-16 09:16:00,32.0,29.4,29.91,SSW,202,4.7,-999.0,90,-99.99,,,0.00,Acu-Link.com,2013-12-16 14:16:00,
2013-12-16 09:31:00,32.4,29.8,29.90,South,180,3.7,-999.0,90,-99.99,,,0.00,Acu-Link.com,2013-12-16 14:31:00,
2013-12-16 09:46:00,32.7,29.8,29.90,SW,225,3.2,-999.0,89,-99.99,,,0.00,Acu-Link.com,2013-12-16 14:46:00,
2013-12-16 10:01:00,33.3,30.1,29.91,SW,225,2.2,-999.0,88,-99.99,,,0.00,Acu-Link.com,2013-12-16 15:01:00,
2013-12-16 10:16:00,33.8,30.6,29.90,SSW,202,4.2,-999.0,88,-99.99,,,0.00,Acu-Link.com,2013-12-16 15:16:00,
2013-12-16 10:31:00,34.5,31.0,29.90,SSW,202,3.7,-999.0,87,-99.99,,,0.00,Acu-Link.com,2013-12-16 15:31:00,
2013-12-16 10:47:00,35.2,31.4,29.89,South,180,5.3,-999.0,86,-99.99,,,0.00,Acu-Link.com,2013-12-16 15:47:00,
2013-12-16 11:02:00,36.0,31.9,29.89,West,270,3.2,-999.0,85,-99.99,,,0.00,Acu-Link.com,2013-12-16 16:02:00,
2013-12-16 11:17:00,36.7,32.3,29.88,SSW,202,2.7,-999.0,84,-99.99,,,0.00,Acu-Link.com,2013-12-16 16:17:00,
2013-12-16 11:32:00,36.7,32.0,29.88,SSW,202,6.3,-999.0,83,-99.99,,,0.00,Acu-Link.com,2013-12-16 16:32:00,
2013-12-16 11:47:00,37.4,32.7,29.87,WSW,247,3.7,-999.0,83,-99.99,,,0.00,Acu-Link.com,2013-12-16 16:47:00,
2013-12-16 12:02:00,39.7,34.0,29.86,South,180,5.8,-999.0,80,-99.99,,,0.00,Acu-Link.com,2013-12-16 17:02:00,
2013-12-16 12:17:00,40.3,34.3,29.85,West,270,5.3,-999.0,79,-99.99,,,0.00,Acu-Link.com,2013-12-16 17:17:00,
2013-12-16 12:33:00,39.9,33.9,29.85,SW,225,5.8,-999.0,79,-99.99,,,0.00,Acu-Link.com,2013-12-16 17:33:00,
2013-12-16 12:48:00,39.6,33.6,29.84,WSW,247,4.7,-999.0,79,-99.99,,,0.00,Acu-Link.com,2013-12-16 17:48:00,
2013-12-16 13:03:00,40.1,33.8,29.83,West,270,3.7,-999.0,78,-99.99,,,0.00,Acu-Link.com,2013-12-16 18:03:00,
2013-12-16 13:18:00,41.7,35.0,29.82,SSW,202,6.3,-999.0,77,-99.99,,,0.00,Acu-Link.com,2013-12-16 18:18:00,
2013-12-16 13:34:00,40.8,34.2,29.82,WSW,247,4.2,-999.0,77,-99.99,,,0.00,Acu-Link.com,2013-12-16 18:34:00,
2013-12-16 13:49:00,41.4,34.4,29.81,WSW,247,4.7,-999.0,76,-99.99,,,0.00,Acu-Link.com,2013-12-16 18:49:00,
2013-12-16 14:04:00,42.1,35.1,29.81,WNW,292,3.7,-999.0,76,-99.99,,,0.00,Acu-Link.com,2013-12-16 19:04:00,
2013-12-16 14:20:00,43.0,35.6,29.81,SW,225,3.7,-999.0,75,-99.99,,,0.00,Acu-Link.com,2013-12-16 19:20:00,
2013-12-16 14:35:00,42.6,35.2,29.80,WSW,247,4.2,-999.0,75,-99.99,,,0.00,Acu-Link.com,2013-12-16 19:35:00,
2013-12-16 14:50:00,42.8,35.1,29.80,WSW,247,3.2,-999.0,74,-99.99,,,0.00,Acu-Link.com,2013-12-16 19:50:00,
2013-12-16 15:05:00,42.6,35.2,29.80,WNW,292,4.2,-999.0,75,-99.99,,,0.00,Acu-Link.com,2013-12-16 20:05:00,
2013-12-16 15:21:00,42.6,35.2,29.80,SSW,202,3.7,-999.0,75,-99.99,,,0.00,Acu-Link.com,2013-12-16 20:21:00,
2013-12-16 15:36:00,42.6,35.2,29.80,SW,225,4.2,-999.0,75,-99.99,,,0.00,Acu-Link.com,2013-12-16 20:36:00,
2013-12-16 15:51:00,42.6,35.2,29.80,South,180,3.2,-999.0,75,-99.99,,,0.00,Acu-Link.com,2013-12-16 20:51:00,
2013-12-16 16:06:00,43.2,35.5,29.81,West,270,6.8,-999.0,74,-99.99,,,0.00,Acu-Link.com,2013-12-16 21:06:00,
2013-12-16 16:21:00,42.4,35.0,29.81,SW,225,5.8,-999.0,75,-99.99,,,0.00,Acu-Link.com,2013-12-16 21:21:00,
2013-12-16 16:37:00,42.1,34.8,29.80,SSW,202,3.2,-999.0,75,-99.99,,,0.00,Acu-Link.com,2013-12-16 21:37:00,
2013-12-16 16:52:00,41.9,34.9,29.80,WSW,247,3.7,-999.0,76,-99.99,,,0.00,Acu-Link.com,2013-12-16 21:52:00,
2013-12-16 17:07:00,41.0,34.4,29.81,WSW,247,2.2,-999.0,77,-99.99,,,0.00,Acu-Link.com,2013-12-16 22:07:00,
2013-12-16 17:22:00,40.1,33.8,29.81,SW,225,2.2,-999.0,78,-99.99,,,0.00,Acu-Link.com,2013-12-16 22:22:00,
2013-12-16 17:37:00,39.0,33.4,29.81,WSW,247,0.0,-999.0,80,-99.99,,,0.00,Acu-Link.com,2013-12-16 22:37:00,
2013-12-16 17:52:00,37.8,32.8,29.82,SW,225,0.0,-999.0,82,-99.99,,,0.00,Acu-Link.com,2013-12-16 22:52:00,
2013-12-16 18:08:00,36.7,32.0,29.83,South,180,0.0,-999.0,83,-99.99,,,0.00,Acu-Link.com,2013-12-16 23:08:00,
2013-12-16 18:23:00,35.8,31.7,29.84,WSW,247,0.0,-999.0,85,-99.99,,,0.00,Acu-Link.com,2013-12-16 23:23:00,
2013-12-16 18:38:00,35.1,31.6,29.84,SSW,202,0.0,-999.0,87,-99.99,,,0.00,Acu-Link.com,2013-12-16 23:38:00,
2013-12-16 18:54:00,34.5,31.3,29.83,South,180,0.0,-999.0,88,-99.99,,,0.00,Acu-Link.com,2013-12-16 23:54:00,
2013-12-16 19:09:00,34.0,31.4,29.83,South,180,0.0,-999.0,90,-99.99,,,0.00,Acu-Link.com,2013-12-17 00:09:00,
2013-12-16 19:24:00,33.4,31.1,29.83,South,180,0.0,-999.0,91,-99.99,,,0.00,Acu-Link.com,2013-12-17 00:24:00,
2013-12-16 19:40:00,32.5,30.2,29.84,SW,225,0.0,-999.0,91,-99.99,,,0.00,Acu-Link.com,2013-12-17 00:40:00,
2013-12-16 19:55:00,31.8,29.7,29.84,West,270,0.0,-999.0,92,-99.99,,,0.00,Acu-Link.com,2013-12-17 00:55:00,
2013-12-16 20:10:00,31.8,30.3,29.83,SSE,157,0.0,-999.0,94,-99.99,,,0.00,Acu-Link.com,2013-12-17 01:10:00,
2013-12-16 20:25:00,31.1,29.6,29.83,WSW,247,0.0,-999.0,94,-99.99,,,0.00,Acu-Link.com,2013-12-17 01:25:00,
2013-12-16 20:41:00,32.4,31.4,29.82,ESE,112,1.1,-999.0,96,-99.99,,,0.00,Acu-Link.com,2013-12-17 01:41:00,
2013-12-16 20:56:00,31.1,30.1,29.83,West,270,0.0,-999.0,96,-99.99,,,0.00,Acu-Link.com,2013-12-17 01:56:00,
2013-12-16 21:12:00,32.4,31.6,29.83,South,180,2.2,-999.0,97,-99.99,,,0.00,Acu-Link.com,2013-12-17 02:12:00,
2013-12-16 21:27:00,34.5,32.7,29.82,South,180,1.7,-999.0,93,-99.99,,,0.00,Acu-Link.com,2013-12-17 02:27:00,
2013-12-16 21:42:00,35.2,32.8,29.82,SW,225,2.7,-999.0,91,-99.99,,,0.00,Acu-Link.com,2013-12-17 02:42:00,
2013-12-16 21:58:00,35.4,32.8,29.82,SSE,157,2.2,-999.0,90,-99.99,,,0.00,Acu-Link.com,2013-12-17 02:58:00,
2013-12-16 22:13:00,35.8,32.9,29.81,SSW,202,2.7,-999.0,89,-99.99,,,0.00,Acu-Link.com,2013-12-17 03:13:00,
2013-12-16 22:28:00,36.3,33.4,29.81,SW,225,2.7,-999.0,89,-99.99,,,0.00,Acu-Link.com,2013-12-17 03:28:00,
2013-12-16 22:43:00,36.1,32.9,29.82,SSW,202,1.7,-999.0,88,-99.99,,,0.00,Acu-Link.com,2013-12-17 03:43:00,
2013-12-16 22:59:00,35.2,32.3,29.82,SSW,202,0.0,-999.0,89,-99.99,,,0.00,Acu-Link.com,2013-12-17 03:59:00,
2013-12-16 23:14:00,35.1,32.5,29.83,SE,135,1.7,-999.0,90,-99.99,,,0.00,Acu-Link.com,2013-12-17 04:14:00,
2013-12-16 23:29:00,34.9,32.3,29.82,East,90,1.7,-999.0,90,-99.99,,,0.00,Acu-Link.com,2013-12-17 04:29:00,
2013-12-16 23:44:00,35.4,33.0,29.82,SSW,202,0.0,-999.0,91,-99.99,,,0.00,Acu-Link.com,2013-12-17 04:44:00,